Weather History for Topeka Forbes, KS

Change the Weather History Date:

Tuesday, January 29, 2013

  Actual Average Record
Temperature  
Mean Temperature 50 °F -  
Max Temperature 68 °F 39 °F 68 °F (2013)
Min Temperature 33 °F 19 °F -9 °F (1966)
Degree Days  
Heating Degree Days 14    
Moisture  
Dew Point 42 °F    
Average Humidity 91    
Maximum Humidity 100    
Minimum Humidity 77    
Precipitation  
Precipitation 0.10 in - - ()
Sea Level Pressure  
Sea Level Pressure 29.58 in    
Wind  
Wind Speed 14 mph (NNW)    
Max Wind Speed 23 mph    
Max Gust Speed 39 mph    
Visibility 7 miles    
Events Rain    
Averages and records for this station are not official NWS values.
T = Trace of Precipitation, MM = Missing Value Source: NWS Daily Summary

Daily Weather History Graph

Daily Weather History Graph

Search for Another Location

Airport:

Trip Planner

Search our weather history database for the weather conditions in past years. The results will help you decide how hot, cold, wet, or windy it might be!

Date:

Astronomy

Jan. 29, 2013 Rise Set
Actual Time 7:31 AM CST 5:40 PM CST
Civil Twilight 7:03 AM CST 6:09 PM CST
Nautical Twilight 6:30 AM CST 6:41 PM CST
Astronomical Twilight 5:59 AM CST 7:12 PM CST
Moon 8:35 PM CST (1/29) 8:30 AM CST (1/29)
Length of Visible Light 11h 06m
Length of Day
10h 09m
Waning Gibbous, 93% of the Moon is Illuminated
Jan 29
Waning Gibbous
Feb 3
Last Quarter
Feb 10
New
Feb 17
First Quarter
Feb 25
Full

Hourly Weather History & Observations

Time (CST) Temp. Windchill Dew Point Humidity Pressure Visibility Wind Dir Wind Speed Gust Speed Precip Events Conditions
12:53 AM 66.9 °F - 61.0 °F 81% 29.59 in 10.0 mi South 17.3 mph 27.6 mph N/A   Overcast
1:31 AM 68.0 °F - 60.8 °F 78% 29.59 in 10.0 mi SSW 23.0 mph 32.2 mph N/A   Overcast
1:43 AM 66.2 °F - 60.8 °F 83% 29.59 in 10.0 mi SSW 20.7 mph 39.1 mph N/A   Mostly Cloudy
1:53 AM 66.9 °F - 61.0 °F 81% 29.56 in 10.0 mi South 19.6 mph 31.1 mph N/A   Mostly Cloudy
2:23 AM 66.2 °F - 60.8 °F 83% 29.59 in 10.0 mi South 17.3 mph 26.5 mph N/A   Mostly Cloudy
2:53 AM 66.0 °F - 60.1 °F 81% 29.56 in 10.0 mi South 16.1 mph - N/A   Mostly Cloudy
3:11 AM 64.4 °F - 60.8 °F 88% 29.59 in 10.0 mi South 13.8 mph - N/A   Scattered Clouds
3:53 AM 64.0 °F - 60.1 °F 87% 29.57 in 10.0 mi SSW 11.5 mph - N/A   Clear
4:53 AM 64.0 °F - 59.0 °F 84% 29.57 in 10.0 mi SW 13.8 mph 20.7 mph N/A   Clear
5:21 AM 55.4 °F - 48.2 °F 77% 29.59 in 10.0 mi NW 10.4 mph - N/A   Mostly Cloudy
5:53 AM 48.9 °F - 45.0 °F 86% 29.60 in 10.0 mi NW 16.1 mph - N/A   Mostly Cloudy
6:01 AM 46.4 °F 40.1 °F 44.6 °F 93% 29.61 in 10.0 mi NNW 15.0 mph - N/A   Mostly Cloudy
6:08 AM 46.4 °F 39.0 °F 44.6 °F 93% 29.62 in 10.0 mi NNW 19.6 mph 25.3 mph N/A   Mostly Cloudy
6:22 AM 46.4 °F 40.4 °F 42.8 °F 87% 29.64 in 9.0 mi NNW 13.8 mph - N/A   Mostly Cloudy
6:53 AM 44.1 °F 37.1 °F 41.0 °F 89% 29.62 in 8.0 mi NNW 15.0 mph - N/A   Overcast
7:53 AM 42.1 °F 34.9 °F 39.0 °F 89% 29.64 in 8.0 mi NW 13.8 mph - N/A   Overcast
8:53 AM 39.9 °F 34.5 °F 37.9 °F 93% 29.68 in 6.0 mi NW 8.1 mph - 0.02 in Rain Light Rain
9:14 AM 39.2 °F 35.0 °F 37.4 °F 93% 29.65 in 5.0 mi North 5.8 mph - 0.03 in Rain Rain
9:42 AM 39.2 °F 34.2 °F 37.4 °F 93% 29.63 in 10.0 mi North 6.9 mph - 0.06 in Rain Light Rain
9:53 AM 39.9 °F 34.5 °F 37.9 °F 93% 29.63 in 9.0 mi NNW 8.1 mph - 0.06 in   Overcast
10:53 AM 39.9 °F 36.7 °F 39.0 °F 97% 29.63 in 8.0 mi North 4.6 mph - 0.00 in Rain Light Rain
11:03 AM 39.2 °F 35.0 °F 39.2 °F 100% 29.61 in 7.0 mi NE 5.8 mph - 0.00 in Rain Light Rain
11:53 AM 39.9 °F 32.5 °F 37.9 °F 93% 29.55 in 3.0 mi North 12.7 mph 17.3 mph 0.01 in   Overcast
12:29 PM 39.2 °F 33.0 °F 37.4 °F 93% 29.56 in 10.0 mi NNE 9.2 mph - N/A   Overcast
12:53 PM 37.9 °F 30.5 °F 36.0 °F 93% 29.57 in 10.0 mi NNW 11.5 mph - N/A   Overcast
1:53 PM 37.0 °F 30.4 °F 35.1 °F 93% 29.56 in 8.0 mi North 9.2 mph - N/A   Overcast
2:44 PM 37.4 °F 28.2 °F 33.8 °F 87% 29.52 in 4.0 mi North 16.1 mph - N/A   Overcast
2:53 PM 37.0 °F 28.9 °F 34.0 °F 89% 29.55 in 4.0 mi North 12.7 mph 20.7 mph N/A   Overcast
3:53 PM 37.0 °F 30.4 °F 34.0 °F 89% 29.56 in 4.0 mi North 9.2 mph - N/A   Overcast
4:53 PM 36.0 °F 27.5 °F 33.1 °F 89% 29.55 in 5.0 mi North 12.7 mph - N/A   Overcast
5:11 PM 35.6 °F 28.0 °F 33.8 °F 93% 29.56 in 4.0 mi North 10.4 mph - 0.00 in   Overcast
5:23 PM 35.6 °F 27.1 °F 33.8 °F 93% 29.56 in 2.5 mi North 12.7 mph - 0.00 in   Overcast
5:53 PM 35.1 °F 27.4 °F 34.0 °F 96% 29.58 in 2.5 mi North 10.4 mph - 0.00 in   Overcast
6:39 PM 35.6 °F 28.6 °F 33.8 °F 93% 29.58 in 2.5 mi NNW 9.2 mph - 0.01 in Rain Light Rain
6:46 PM 35.6 °F 27.5 °F 33.8 °F 93% 29.56 in 3.0 mi North 11.5 mph - 0.01 in Rain Light Rain
6:53 PM 35.1 °F 27.9 °F 34.0 °F 96% 29.59 in 3.0 mi NNW 9.2 mph - 0.01 in Rain Light Rain
7:53 PM 35.1 °F 28.6 °F 34.0 °F 96% 29.58 in 6.0 mi NNE 8.1 mph - 0.00 in   Overcast
8:53 PM 35.1 °F 28.6 °F 34.0 °F 96% 29.56 in 10.0 mi North 8.1 mph - 0.00 in   Overcast
9:53 PM 35.1 °F 26.4 °F 34.0 °F 96% 29.53 in 8.0 mi NNE 12.7 mph - 0.00 in Rain Light Rain
10:53 PM 34.0 °F 24.6 °F 33.1 °F 96% 29.56 in 3.0 mi NNW 13.8 mph - 0.00 in   Overcast
11:22 PM 33.8 °F 25.8 °F 33.8 °F 100% 29.56 in 2.5 mi NNW 10.4 mph - 0.00 in   Overcast
11:32 PM 33.8 °F 27.7 °F 33.8 °F 100% 29.57 in 3.0 mi NNW 6.9 mph - 0.00 in   Overcast
11:46 PM 33.8 °F 25.8 °F 33.8 °F 100% 29.54 in 2.5 mi North 10.4 mph - 0.00 in   Overcast
11:53 PM 34.0 °F 25.0 °F 33.1 °F 96% 29.56 in 2.5 mi North 12.7 mph - 0.00 in   Overcast